TimeEST,TemperatureF,Dew PointF,Humidity,Sea Level PressureIn,VisibilityMPH,Wind Direction,Wind SpeedMPH,Gust SpeedMPH,PrecipitationIn,Events,Conditions,WindDirDegrees,DateUTC
12:00 AM,33.8,28.4,81,30.09,10.0,Calm,Calm,-,N/A,,Overcast,0,2012-11-04 04:00:00
12:25 AM,33.8,28.4,81,30.09,10.0,Calm,Calm,-,N/A,,Overcast,0,2012-11-04 04:25:00
12:51 AM,34.0,28.9,82,30.14,10.0,Calm,Calm,-,N/A,,Overcast,0,2012-11-04 04:51:00
1:51 AM,34.0,28.9,82,30.13,10.0,Calm,Calm,-,N/A,,Overcast,0,2012-11-04 05:51:00
1:51 AM,34.0,28.9,82,30.12,10.0,Calm,Calm,-,N/A,,Overcast,0,2012-11-04 06:51:00
2:51 AM,34.0,30.0,85,30.11,10.0,Calm,Calm,-,N/A,,Overcast,0,2012-11-04 07:51:00
3:51 AM,35.1,28.9,78,30.09,10.0,Calm,Calm,-,N/A,,Overcast,0,2012-11-04 08:51:00
4:51 AM,35.1,30.0,82,30.12,9.0,Calm,Calm,-,N/A,,Overcast,0,2012-11-04 09:51:00
5:51 AM,34.0,28.9,82,30.13,10.0,North,3.5,-,N/A,,Overcast,350,2012-11-04 10:51:00
6:47 AM,33.8,30.2,87,30.06,10.0,Calm,Calm,-,N/A,,Overcast,0,2012-11-04 11:47:00
6:51 AM,34.0,28.9,82,30.12,10.0,Calm,Calm,-,N/A,,Overcast,0,2012-11-04 11:51:00
7:51 AM,34.0,30.0,85,30.14,10.0,Calm,Calm,-,N/A,,Overcast,0,2012-11-04 12:51:00
8:25 AM,37.4,28.4,70,30.08,10.0,Calm,Calm,-,N/A,,Overcast,0,2012-11-04 13:25:00
8:51 AM,37.0,28.0,70,30.13,10.0,Calm,Calm,-,N/A,,Mostly Cloudy,0,2012-11-04 13:51:00
9:51 AM,39.0,27.0,62,30.13,10.0,North,3.5,-,N/A,,Partly Cloudy,10,2012-11-04 14:51:00
10:16 AM,39.2,28.4,65,30.06,10.0,NNW,5.8,-,N/A,,Mostly Cloudy,340,2012-11-04 15:16:00
10:51 AM,39.0,28.0,65,30.13,10.0,North,5.8,-,N/A,,Mostly Cloudy,350,2012-11-04 15:51:00
11:51 AM,39.9,27.0,60,30.12,10.0,West,6.9,-,N/A,,Scattered Clouds,280,2012-11-04 16:51:00
12:04 PM,39.2,28.4,65,30.06,10.0,NNW,9.2,-,N/A,,Mostly Cloudy,340,2012-11-04 17:04:00
12:48 PM,41.0,28.4,61,30.05,10.0,North,6.9,-,N/A,,Mostly Cloudy,350,2012-11-04 17:48:00
12:51 PM,41.0,27.0,57,30.11,10.0,North,6.9,-,N/A,,Mostly Cloudy,360,2012-11-04 17:51:00
1:51 PM,42.1,27.0,55,30.10,10.0,Variable,3.5,-,N/A,,Scattered Clouds,0,2012-11-04 18:51:00
2:51 PM,42.1,27.0,55,30.10,10.0,NW,9.2,-,N/A,,Scattered Clouds,320,2012-11-04 19:51:00
3:51 PM,41.0,26.1,55,30.10,10.0,Variable,4.6,-,N/A,,Clear,0,2012-11-04 20:51:00
4:51 PM,39.0,26.1,60,30.11,10.0,NNW,4.6,-,N/A,,Mostly Cloudy,340,2012-11-04 21:51:00
5:51 PM,39.0,26.1,60,30.11,10.0,Calm,Calm,-,N/A,,Overcast,0,2012-11-04 22:51:00
6:51 PM,36.0,28.0,73,30.13,10.0,North,3.5,-,N/A,,Overcast,360,2012-11-04 23:51:00
7:51 PM,34.0,26.1,73,30.13,10.0,North,4.6,-,N/A,,Scattered Clouds,350,2012-11-05 00:51:00
8:51 PM,33.1,25.0,72,30.14,10.0,NNW,3.5,-,N/A,,Mostly Cloudy,330,2012-11-05 01:51:00
9:51 PM,30.0,25.0,82,30.14,10.0,Calm,Calm,-,N/A,,Overcast,0,2012-11-05 02:51:00
10:51 PM,30.9,27.0,85,30.14,10.0,Calm,Calm,-,N/A,,Overcast,0,2012-11-05 03:51:00